User: anonymous   Login
Location: Unspecified
(0.0000°N, 0.0000°E)
Time: 14:44:43
(UTC+00:00)
Language:

APRIZESAT 3 - Orbit

View from above orbital plane
View from above orbital plane
View from above satellite
View from above satellite

Ground track
Ground track

The orbit data is extracted from the following two-line orbital elements,

1 35686U 09041F   17265.92206667 +.00000139 +00000-0 +21660-4 0  9993
2 35686 098.2800 269.6009 0074322 056.7164 304.1141 14.87111643441667
Epoch (UTC): 22 September 2017 22:07:46
Eccentricity: 0.0074322
inclination: 98.2800°
perigee height: 555 km
apogee height: 659 km
right ascension of ascending node: 269.6009°
argument of perigee: 56.7164°
revolutions per day: 14.87111643
mean anomaly at epoch: 304.1141°
orbit number at epoch: 44166

The dashed part of the orbit path shows where the satellite is in the earth's shadow,  

DLR